Your Météo : votre météo gratuite
Mes favoris météo

Observations météo à Florennes (bel-a (Belgique)




Tableau des observations (temps universel)

HeurePictosTempératureHumiditéVent dir.Vent vit.PressionVisbilité
23:55-2°C80%18km/h1021hpa6.0km
00:25-3°C86%21km/h1020hpa5.0km
00:55-3°C86%21km/h1020hpa5.0km
01:10-3°C86%18km/h1020hpa4.7km
01:25-3°C86%17km/h1020hpa4.8km
01:55-3°C86%17km/h1020hpa4.6km
02:25-3°C86%18km/h1020hpa4.5km
02:55-3°C80%18km/h1020hpa4.5km
03:25-4°C86%18km/h1019hpa4.7km
03:55-4°C86%18km/h1019hpa4.9km
04:09-4°C86%18km/h1019hpa8.0km
04:25-4°C86%18km/h1019hpa8.0km
04:55-4°C86%18km/h1020hpa8.0km
05:25-4°C86%18km/h1020hpa8.0km
05:46-4°C86%18km/h1020hpa7.0km
05:55-4°C80%18km/h1020hpa5.0km
06:10-4°C86%17km/h1020hpa4.5km
06:25-4°C86%18km/h1020hpa4.0km
06:48-4°C86%18km/h1020hpa4.0km
06:55-4°C86%17km/h1020hpa4.0km
07:25-4°C86%21km/h1020hpa4.5km




Nos rubriques phares
La météo sur votre site web
Modélisations numériques
Météo des neiges par ville Les stations à proximité
Charleroi/gossel ( 31 km )
Charleville/mezi ( 50 km )
Bertrix (bel-afb ( 55 km )
Saint hubert ( 58 km )
Saint hubert (mi ( 58 km )
Beauvechain (baf ( 60 km )
Goetsenhoven (mi ( 65 km )
Uccle/ukkle ( 68 km )
Chievres ab ( 71 km )
Bierset/liege (c ( 73 km )